Time,TemperatureF,DewpointF,PressureIn,WindDirection,WindDirectionDegrees,WindSpeedMPH,WindSpeedGustMPH,Humidity,HourlyPrecipIn,Conditions,Clouds,dailyrainin,SoftwareType,DateUTC
2013-08-28 00:01:00,72.4,70.6,30.04,SW,226,0.0,0.0,94,0.00,,,0.00,Wunderground v.1.15,2013-08-28 05:01:00,
2013-08-28 00:06:00,72.4,70.9,30.04,SW,226,0.0,0.0,95,0.00,,,0.00,Wunderground v.1.15,2013-08-28 05:06:00,
2013-08-28 00:12:00,72.3,70.8,30.04,SW,228,0.0,0.0,95,0.00,,,0.00,Wunderground v.1.15,2013-08-28 05:12:00,
2013-08-28 00:18:00,72.1,70.6,30.04,SW,228,0.0,0.0,95,0.00,,,0.00,Wunderground v.1.15,2013-08-28 05:18:00,
2013-08-28 00:24:00,71.9,70.1,30.04,SW,227,0.0,0.0,94,0.00,,,0.00,Wunderground v.1.15,2013-08-28 05:24:00,
2013-08-28 00:30:00,71.8,70.0,30.03,NNW,347,1.0,1.0,94,0.00,,,0.00,Wunderground v.1.15,2013-08-28 05:30:00,
2013-08-28 00:36:00,72.0,70.2,30.03,North,6,1.0,1.0,94,0.00,,,0.00,Wunderground v.1.15,2013-08-28 05:36:00,
2013-08-28 00:42:00,71.9,70.1,30.03,NNE,15,0.0,1.0,94,0.00,,,0.00,Wunderground v.1.15,2013-08-28 05:42:00,
2013-08-28 00:48:00,71.6,69.5,30.03,NNE,13,1.0,1.0,93,0.00,,,0.00,Wunderground v.1.15,2013-08-28 05:48:00,
2013-08-28 00:53:00,71.5,69.4,30.03,NNE,13,0.0,1.0,93,0.00,,,0.00,Wunderground v.1.15,2013-08-28 05:53:00,
2013-08-28 00:59:00,71.4,69.3,30.02,NNE,13,1.0,1.0,93,0.00,,,0.00,Wunderground v.1.15,2013-08-28 05:59:00,
2013-08-28 01:05:00,71.2,69.1,30.02,NNE,13,0.0,1.0,93,0.00,,,0.00,Wunderground v.1.15,2013-08-28 06:05:00,
2013-08-28 01:11:00,71.0,69.2,30.02,NNE,13,0.0,0.0,94,0.00,,,0.00,Wunderground v.1.15,2013-08-28 06:11:00,
2013-08-28 01:17:00,70.9,68.8,30.02,NNE,13,0.0,0.0,93,0.00,,,0.00,Wunderground v.1.15,2013-08-28 06:17:00,
2013-08-28 01:23:00,71.1,69.0,30.02,NNE,13,0.0,0.0,93,0.00,,,0.00,Wunderground v.1.15,2013-08-28 06:23:00,
2013-08-28 01:29:00,71.2,69.1,30.02,NNE,13,1.0,1.0,93,0.00,,,0.00,Wunderground v.1.15,2013-08-28 06:29:00,
2013-08-28 01:34:00,71.1,69.0,30.02,NNE,13,1.0,1.0,93,0.00,,,0.00,Wunderground v.1.15,2013-08-28 06:34:00,
2013-08-28 01:40:00,71.0,68.9,30.02,NNE,13,1.0,1.0,93,0.00,,,0.00,Wunderground v.1.15,2013-08-28 06:40:00,
2013-08-28 01:46:00,70.7,68.9,30.02,NNE,12,1.0,1.0,94,0.00,,,0.00,Wunderground v.1.15,2013-08-28 06:46:00,
2013-08-28 01:52:00,70.4,68.6,30.02,North,11,0.0,1.0,94,0.00,,,0.00,Wunderground v.1.15,2013-08-28 06:52:00,
2013-08-28 01:58:00,70.1,68.6,30.02,NNE,12,0.0,1.0,95,0.00,,,0.00,Wunderground v.1.15,2013-08-28 06:58:00,
2013-08-28 02:03:00,70.0,68.2,30.01,North,11,1.0,2.0,94,0.00,,,0.00,Wunderground v.1.15,2013-08-28 07:03:00,
2013-08-28 02:08:00,70.0,68.2,30.01,North,354,1.0,2.0,94,0.00,,,0.00,Wunderground v.1.15,2013-08-28 07:08:00,
2013-08-28 02:13:00,70.1,68.0,30.01,North,7,1.0,3.0,93,0.00,,,0.00,Wunderground v.1.15,2013-08-28 07:13:00,
2013-08-28 02:18:00,70.2,67.4,30.01,North,5,1.0,3.0,91,0.00,,,0.00,Wunderground v.1.15,2013-08-28 07:18:00,
2013-08-28 02:23:00,70.2,67.4,30.01,NNE,18,1.0,6.0,91,0.00,,,0.00,Wunderground v.1.15,2013-08-28 07:23:00,
2013-08-28 02:28:00,70.2,67.1,30.01,North,352,1.0,6.0,90,0.00,,,0.00,Wunderground v.1.15,2013-08-28 07:28:00,
2013-08-28 02:33:00,70.2,67.1,30.01,North,8,2.0,3.0,90,0.00,,,0.00,Wunderground v.1.15,2013-08-28 07:33:00,
2013-08-28 02:38:00,70.2,67.1,30.01,NNW,348,2.0,4.0,90,0.00,,,0.00,Wunderground v.1.15,2013-08-28 07:38:00,
2013-08-28 02:43:00,70.1,67.0,30.01,NW,326,1.0,2.0,90,0.00,,,0.00,Wunderground v.1.15,2013-08-28 07:43:00,
2013-08-28 02:48:00,70.1,67.0,30.01,NNE,13,2.0,4.0,90,0.00,,,0.00,Wunderground v.1.15,2013-08-28 07:48:00,
2013-08-28 02:53:00,70.1,66.7,30.01,NNW,342,2.0,4.0,89,0.00,,,0.00,Wunderground v.1.15,2013-08-28 07:53:00,
2013-08-28 02:58:00,70.1,67.0,30.01,NNW,342,2.0,5.0,90,0.00,,,0.00,Wunderground v.1.15,2013-08-28 07:58:00,
2013-08-28 03:03:00,70.0,66.6,30.00,North,4,2.0,3.0,89,0.00,,,0.00,Wunderground v.1.15,2013-08-28 08:03:00,
2013-08-28 03:08:00,70.0,66.9,30.00,NNW,340,1.0,5.0,90,0.00,,,0.00,Wunderground v.1.15,2013-08-28 08:08:00,
2013-08-28 03:13:00,69.9,66.8,30.00,North,6,1.0,3.0,90,0.00,,,0.00,Wunderground v.1.15,2013-08-28 08:13:00,
2013-08-28 03:18:00,69.8,66.7,30.00,NNW,338,2.0,3.0,90,0.00,,,0.00,Wunderground v.1.15,2013-08-28 08:18:00,
2013-08-28 03:23:00,69.7,66.6,30.00,North,10,2.0,3.0,90,0.00,,,0.00,Wunderground v.1.15,2013-08-28 08:23:00,
2013-08-28 03:28:00,69.5,66.4,30.00,North,350,1.0,3.0,90,0.00,,,0.00,Wunderground v.1.15,2013-08-28 08:28:00,
2013-08-28 03:33:00,69.4,66.3,30.00,NNE,18,1.0,3.0,90,0.00,,,0.00,Wunderground v.1.15,2013-08-28 08:33:00,
2013-08-28 03:38:00,69.4,66.7,30.00,NNW,333,2.0,3.0,91,0.00,,,0.00,Wunderground v.1.15,2013-08-28 08:38:00,
2013-08-28 03:43:00,69.5,66.8,30.00,NNE,15,2.0,4.0,91,0.00,,,0.00,Wunderground v.1.15,2013-08-28 08:43:00,
2013-08-28 03:48:00,69.4,66.7,30.00,NNE,20,2.0,4.0,91,0.00,,,0.00,Wunderground v.1.15,2013-08-28 08:48:00,
2013-08-28 03:53:00,69.4,66.7,30.00,NNE,20,1.0,4.0,91,0.00,,,0.00,Wunderground v.1.15,2013-08-28 08:53:00,
2013-08-28 03:58:00,69.3,66.6,30.00,North,360,2.0,4.0,91,0.00,,,0.00,Wunderground v.1.15,2013-08-28 08:58:00,
2013-08-28 04:03:00,69.2,66.5,29.99,North,352,0.0,3.0,91,0.00,,,0.00,Wunderground v.1.15,2013-08-28 09:03:00,
2013-08-28 04:08:00,69.2,66.5,30.00,North,356,2.0,3.0,91,0.00,,,0.00,Wunderground v.1.15,2013-08-28 09:08:00,
2013-08-28 04:13:00,69.2,66.8,30.00,North,356,2.0,4.0,92,0.00,,,0.00,Wunderground v.1.15,2013-08-28 09:13:00,
2013-08-28 04:18:00,69.2,66.8,30.00,NNE,18,2.0,4.0,92,0.00,,,0.00,Wunderground v.1.15,2013-08-28 09:18:00,
2013-08-28 04:23:00,69.0,66.6,30.00,North,7,1.0,4.0,92,0.00,,,0.00,Wunderground v.1.15,2013-08-28 09:23:00,
2013-08-28 04:28:00,69.0,66.6,30.00,NNE,12,1.0,4.0,92,0.00,,,0.00,Wunderground v.1.15,2013-08-28 09:28:00,
2013-08-28 04:33:00,69.0,66.6,30.00,North,6,2.0,2.0,92,0.00,,,0.00,Wunderground v.1.15,2013-08-28 09:33:00,
2013-08-28 04:39:00,69.0,66.6,30.00,NNE,13,1.0,4.0,92,0.00,,,0.00,Wunderground v.1.15,2013-08-28 09:39:00,
2013-08-28 04:44:00,68.9,66.5,30.00,North,1,1.0,3.0,92,0.00,,,0.00,Wunderground v.1.15,2013-08-28 09:44:00,
2013-08-28 04:49:00,68.8,66.4,30.00,North,360,2.0,3.0,92,0.00,,,0.00,Wunderground v.1.15,2013-08-28 09:49:00,
2013-08-28 04:54:00,68.8,66.7,30.00,North,354,1.0,3.0,93,0.00,,,0.00,Wunderground v.1.15,2013-08-28 09:54:00,
2013-08-28 04:59:00,68.8,66.7,30.00,NNE,23,1.0,3.0,93,0.00,,,0.00,Wunderground v.1.15,2013-08-28 09:59:00,
2013-08-28 05:04:00,68.8,66.7,30.00,NE,44,1.0,3.0,93,0.00,,,0.00,Wunderground v.1.15,2013-08-28 10:04:00,
2013-08-28 05:09:00,68.8,66.7,30.00,NNE,12,3.0,4.0,93,0.00,,,0.00,Wunderground v.1.15,2013-08-28 10:09:00,
2013-08-28 05:14:00,68.7,66.6,30.01,NNE,19,2.0,2.0,93,0.00,,,0.00,Wunderground v.1.15,2013-08-28 10:14:00,
2013-08-28 05:19:00,68.7,66.6,30.01,North,352,1.0,4.0,93,0.00,,,0.00,Wunderground v.1.15,2013-08-28 10:19:00,
2013-08-28 05:24:00,68.8,66.7,30.01,North,349,1.0,2.0,93,0.00,,,0.00,Wunderground v.1.15,2013-08-28 10:24:00,
2013-08-28 05:29:00,68.7,66.6,30.01,North,359,1.0,3.0,93,0.00,,,0.00,Wunderground v.1.15,2013-08-28 10:29:00,
2013-08-28 05:34:00,68.7,66.6,30.01,North,354,2.0,3.0,93,0.00,,,0.00,Wunderground v.1.15,2013-08-28 10:34:00,
2013-08-28 05:39:00,68.7,66.6,30.01,North,350,1.0,4.0,93,0.00,,,0.00,Wunderground v.1.15,2013-08-28 10:39:00,
2013-08-28 05:44:00,68.7,66.6,30.01,NNW,345,1.0,3.0,93,0.00,,,0.00,Wunderground v.1.15,2013-08-28 10:44:00,
2013-08-28 05:49:00,68.8,66.7,30.02,North,11,0.0,4.0,93,0.00,,,0.00,Wunderground v.1.15,2013-08-28 10:49:00,
2013-08-28 05:54:00,68.8,66.7,30.02,North,360,1.0,2.0,93,0.00,,,0.00,Wunderground v.1.15,2013-08-28 10:54:00,
2013-08-28 05:59:00,68.9,66.8,30.02,NNE,18,1.0,4.0,93,0.00,,,0.00,Wunderground v.1.15,2013-08-28 10:59:00,
2013-08-28 06:04:00,69.0,66.9,30.02,NNE,15,2.0,3.0,93,0.00,,,0.00,Wunderground v.1.15,2013-08-28 11:04:00,
2013-08-28 06:09:00,69.0,66.6,30.02,North,8,2.0,3.0,92,0.00,,,0.00,Wunderground v.1.15,2013-08-28 11:09:00,
2013-08-28 06:14:00,69.0,66.6,30.03,NW,325,1.0,3.0,92,0.00,,,0.00,Wunderground v.1.15,2013-08-28 11:14:00,
2013-08-28 06:19:00,69.0,66.9,30.03,North,6,1.0,3.0,93,0.00,,,0.00,Wunderground v.1.15,2013-08-28 11:19:00,
2013-08-28 06:24:00,69.0,66.9,30.03,North,358,1.0,2.0,93,0.00,,,0.00,Wunderground v.1.15,2013-08-28 11:24:00,
2013-08-28 06:30:00,69.0,66.6,30.03,North,8,1.0,1.0,92,0.00,,,0.00,Wunderground v.1.15,2013-08-28 11:30:00,
2013-08-28 06:35:00,69.0,66.6,30.03,NNW,338,1.0,3.0,92,0.00,,,0.00,Wunderground v.1.15,2013-08-28 11:35:00,
2013-08-28 06:40:00,69.0,66.6,30.03,NNE,33,3.0,3.0,92,0.00,,,0.00,Wunderground v.1.15,2013-08-28 11:40:00,
2013-08-28 06:45:00,69.1,66.7,30.04,North,6,1.0,4.0,92,0.00,,,0.00,Wunderground v.1.15,2013-08-28 11:45:00,
2013-08-28 06:50:00,69.3,66.9,30.04,North,358,2.0,2.0,92,0.00,,,0.00,Wunderground v.1.15,2013-08-28 11:50:00,
2013-08-28 06:55:00,69.4,66.7,30.04,North,5,1.0,3.0,91,0.00,,,0.00,Wunderground v.1.15,2013-08-28 11:55:00,
2013-08-28 07:00:00,69.5,66.8,30.04,North,356,1.0,2.0,91,0.00,,,0.00,Wunderground v.1.15,2013-08-28 12:00:00,
2013-08-28 07:05:00,69.6,66.9,30.05,NNW,338,1.0,3.0,91,0.00,,,0.00,Wunderground v.1.15,2013-08-28 12:05:00,
2013-08-28 07:10:00,69.7,67.0,30.05,NNE,15,3.0,3.0,91,0.00,,,0.00,Wunderground v.1.15,2013-08-28 12:10:00,
2013-08-28 07:15:00,69.7,67.0,30.05,NNE,20,1.0,4.0,91,0.00,,,0.00,Wunderground v.1.15,2013-08-28 12:15:00,
2013-08-28 07:20:00,69.8,67.1,30.05,NE,46,2.0,2.0,91,0.00,,,0.00,Wunderground v.1.15,2013-08-28 12:20:00,
2013-08-28 07:25:00,69.9,67.2,30.05,North,11,1.0,3.0,91,0.00,,,0.00,Wunderground v.1.15,2013-08-28 12:25:00,
2013-08-28 07:30:00,70.4,67.6,30.05,NNE,15,1.0,1.0,91,0.00,,,0.00,Wunderground v.1.15,2013-08-28 12:30:00,
2013-08-28 07:35:00,70.9,67.8,30.05,NNE,12,1.0,2.0,90,0.00,,,0.00,Wunderground v.1.15,2013-08-28 12:35:00,
2013-08-28 07:40:00,71.5,68.1,30.05,North,4,2.0,3.0,89,0.00,,,0.00,Wunderground v.1.15,2013-08-28 12:40:00,
2013-08-28 07:45:00,71.8,68.1,30.05,North,8,3.0,4.0,88,0.00,,,0.00,Wunderground v.1.15,2013-08-28 12:45:00,
2013-08-28 07:50:00,72.3,68.5,30.05,NNW,342,2.0,2.0,88,0.00,,,0.00,Wunderground v.1.15,2013-08-28 12:50:00,
2013-08-28 07:55:00,72.7,68.6,30.06,North,352,2.0,5.0,87,0.00,,,0.00,Wunderground v.1.15,2013-08-28 12:55:00,
2013-08-28 08:00:00,72.9,68.8,30.06,North,1,2.0,2.0,87,0.00,,,0.00,Wunderground v.1.15,2013-08-28 13:00:00,
2013-08-28 08:05:00,72.7,68.6,30.06,North,355,1.0,4.0,87,0.00,,,0.00,Wunderground v.1.15,2013-08-28 13:05:00,
2013-08-28 08:10:00,72.8,68.7,30.06,NNW,336,3.0,3.0,87,0.00,,,0.00,Wunderground v.1.15,2013-08-28 13:10:00,
2013-08-28 08:15:00,73.5,69.1,30.06,NNE,26,2.0,5.0,86,0.00,,,0.00,Wunderground v.1.15,2013-08-28 13:15:00,
2013-08-28 08:20:00,73.9,69.1,30.06,North,349,1.0,2.0,85,0.00,,,0.00,Wunderground v.1.15,2013-08-28 13:20:00,
2013-08-28 08:25:00,74.3,69.5,30.06,NNW,338,1.0,5.0,85,0.00,,,0.00,Wunderground v.1.15,2013-08-28 13:25:00,
2013-08-28 08:30:00,74.0,69.2,30.06,North,360,2.0,2.0,85,0.00,,,0.00,Wunderground v.1.15,2013-08-28 13:30:00,
2013-08-28 08:35:00,74.5,70.0,30.06,NNE,12,4.0,4.0,86,0.00,,,0.00,Wunderground v.1.15,2013-08-28 13:35:00,
2013-08-28 08:40:00,75.2,70.4,30.06,NW,320,2.0,2.0,85,0.00,,,0.00,Wunderground v.1.15,2013-08-28 13:40:00,
2013-08-28 08:45:00,75.7,70.2,30.06,NNW,348,0.0,5.0,83,0.00,,,0.00,Wunderground v.1.15,2013-08-28 13:45:00,
2013-08-28 08:50:00,75.7,70.2,30.06,NNW,348,1.0,2.0,83,0.00,,,0.00,Wunderground v.1.15,2013-08-28 13:50:00,
2013-08-28 08:55:00,75.7,70.2,30.06,ENE,65,3.0,4.0,83,0.00,,,0.00,Wunderground v.1.15,2013-08-28 13:55:00,
2013-08-28 09:00:00,75.9,70.4,30.06,NNW,348,2.0,2.0,83,0.00,,,0.00,Wunderground v.1.15,2013-08-28 14:00:00,
2013-08-28 09:05:00,76.5,70.9,30.07,NNW,341,0.0,4.0,83,0.00,,,0.00,Wunderground v.1.15,2013-08-28 14:05:00,
2013-08-28 09:10:00,77.2,71.3,30.07,NW,310,2.0,2.0,82,0.00,,,0.00,Wunderground v.1.15,2013-08-28 14:10:00,
2013-08-28 09:15:00,77.6,71.7,30.07,North,356,1.0,4.0,82,0.00,,,0.00,Wunderground v.1.15,2013-08-28 14:15:00,
2013-08-28 09:20:00,78.3,72.0,30.07,ENE,72,3.0,4.0,81,0.00,,,0.00,Wunderground v.1.15,2013-08-28 14:20:00,
2013-08-28 09:25:00,79.0,71.9,30.07,ENE,62,1.0,6.0,79,0.00,,,0.00,Wunderground v.1.15,2013-08-28 14:25:00,
2013-08-28 09:30:00,79.2,72.1,30.07,North,360,3.0,3.0,79,0.00,,,0.00,Wunderground v.1.15,2013-08-28 14:30:00,
2013-08-28 09:35:00,79.1,71.3,30.07,North,358,2.0,4.0,77,0.00,,,0.00,Wunderground v.1.15,2013-08-28 14:35:00,
2013-08-28 09:40:00,79.4,71.6,30.07,NNE,15,3.0,4.0,77,0.00,,,0.00,Wunderground v.1.15,2013-08-28 14:40:00,
2013-08-28 09:45:00,79.9,71.7,30.07,NW,318,1.0,4.0,76,0.00,,,0.00,Wunderground v.1.15,2013-08-28 14:45:00,
2013-08-28 09:50:00,80.1,72.2,30.07,North,4,3.0,3.0,77,0.00,,,0.00,Wunderground v.1.15,2013-08-28 14:50:00,
2013-08-28 09:55:00,80.3,72.8,30.07,North,352,0.0,4.0,78,0.00,,,0.00,Wunderground v.1.15,2013-08-28 14:55:00,
2013-08-28 10:00:00,80.8,72.5,30.07,North,8,0.0,2.0,76,0.00,,,0.00,Wunderground v.1.15,2013-08-28 15:00:00,
2013-08-28 10:05:00,81.2,72.1,30.07,NNW,347,3.0,4.0,74,0.00,,,0.00,Wunderground v.1.15,2013-08-28 15:05:00,
2013-08-28 10:10:00,81.3,72.2,30.07,NW,310,4.0,4.0,74,0.00,,,0.00,Wunderground v.1.15,2013-08-28 15:10:00,
2013-08-28 10:15:00,81.4,71.5,30.07,NNW,330,5.0,6.0,72,0.00,,,0.00,Wunderground v.1.15,2013-08-28 15:15:00,
2013-08-28 10:20:00,81.8,72.3,30.07,NE,34,1.0,3.0,73,0.00,,,0.00,Wunderground v.1.15,2013-08-28 15:20:00,
2013-08-28 10:25:00,82.4,72.5,30.07,NW,326,1.0,4.0,72,0.00,,,0.00,Wunderground v.1.15,2013-08-28 15:25:00,
2013-08-28 10:30:00,82.5,70.9,30.07,NNW,346,2.0,3.0,68,0.00,,,0.00,Wunderground v.1.15,2013-08-28 15:30:00,
2013-08-28 10:35:00,82.6,71.4,30.07,North,352,1.0,5.0,69,0.00,,,0.00,Wunderground v.1.15,2013-08-28 15:35:00,
2013-08-28 10:40:00,82.7,69.3,30.07,NNE,22,2.0,6.0,64,0.00,,,0.00,Wunderground v.1.15,2013-08-28 15:40:00,
2013-08-28 10:45:00,83.1,71.0,30.07,ENE,70,2.0,6.0,67,0.00,,,0.00,Wunderground v.1.15,2013-08-28 15:45:00,
2013-08-28 10:50:00,82.9,68.1,30.06,NNE,32,1.0,2.0,61,0.00,,,0.00,Wunderground v.1.15,2013-08-28 15:50:00,
2013-08-28 10:55:00,83.2,69.8,30.06,North,357,1.0,4.0,64,0.00,,,0.00,Wunderground v.1.15,2013-08-28 15:55:00,
2013-08-28 11:00:00,84.0,71.0,30.06,WNW,296,3.0,3.0,65,0.00,,,0.00,Wunderground v.1.15,2013-08-28 16:00:00,
2013-08-28 11:05:00,84.2,68.8,30.06,North,9,5.0,6.0,60,0.00,,,0.00,Wunderground v.1.15,2013-08-28 16:05:00,
2013-08-28 11:10:00,84.0,68.1,30.06,NW,314,3.0,3.0,59,0.00,,,0.00,Wunderground v.1.15,2013-08-28 16:10:00,
2013-08-28 11:15:00,84.2,68.8,30.06,NNW,330,3.0,5.0,60,0.00,,,0.00,Wunderground v.1.15,2013-08-28 16:15:00,
2013-08-28 11:20:00,84.2,68.3,30.07,North,356,3.0,5.0,59,0.00,,,0.00,Wunderground v.1.15,2013-08-28 16:20:00,
2013-08-28 11:25:00,83.4,67.6,30.07,NW,316,4.0,6.0,59,0.00,,,0.00,Wunderground v.1.15,2013-08-28 16:25:00,
2013-08-28 11:30:00,82.9,68.5,30.06,North,9,2.0,3.0,62,0.00,,,0.00,Wunderground v.1.15,2013-08-28 16:30:00,
2013-08-28 11:35:00,83.2,70.2,30.06,North,6,1.0,3.0,65,0.00,,,0.00,Wunderground v.1.15,2013-08-28 16:35:00,
2013-08-28 11:40:00,83.3,68.9,30.06,NW,323,1.0,1.0,62,0.00,,,0.00,Wunderground v.1.15,2013-08-28 16:40:00,
2013-08-28 11:45:00,83.5,68.6,30.06,NW,314,1.0,3.0,61,0.00,,,0.00,Wunderground v.1.15,2013-08-28 16:45:00,
2013-08-28 11:50:00,83.7,68.8,30.06,North,8,0.0,1.0,61,0.00,,,0.00,Wunderground v.1.15,2013-08-28 16:50:00,
2013-08-28 11:55:00,83.6,67.3,30.06,NW,319,2.0,4.0,58,0.00,,,0.00,Wunderground v.1.15,2013-08-28 16:55:00,
2013-08-28 12:00:00,83.2,68.8,30.06,ENE,60,0.0,1.0,62,0.00,,,0.00,Wunderground v.1.15,2013-08-28 17:00:00,
2013-08-28 12:05:00,83.2,69.8,30.06,East,91,3.0,3.0,64,0.00,,,0.00,Wunderground v.1.15,2013-08-28 17:05:00,
2013-08-28 12:10:00,83.2,67.9,30.06,East,89,0.0,1.0,60,0.00,,,0.00,Wunderground v.1.15,2013-08-28 17:10:00,
2013-08-28 12:15:00,83.0,68.6,30.05,ENE,70,3.0,5.0,62,0.00,,,0.00,Wunderground v.1.15,2013-08-28 17:15:00,
2013-08-28 12:20:00,82.7,69.3,30.05,SE,128,2.0,3.0,64,0.00,,,0.00,Wunderground v.1.15,2013-08-28 17:20:00,
2013-08-28 12:25:00,83.4,69.5,30.05,SSE,147,2.0,3.0,63,0.00,,,0.00,Wunderground v.1.15,2013-08-28 17:25:00,
2013-08-28 12:30:00,84.2,69.3,30.05,SSE,153,3.0,4.0,61,0.00,,,0.00,Wunderground v.1.15,2013-08-28 17:30:00,
2013-08-28 12:35:00,84.1,68.7,30.05,SE,128,3.0,5.0,60,0.00,,,0.00,Wunderground v.1.15,2013-08-28 17:35:00,
2013-08-28 12:40:00,83.7,69.3,30.05,SE,132,2.0,4.0,62,0.00,,,0.00,Wunderground v.1.15,2013-08-28 17:40:00,
2013-08-28 12:45:00,83.3,68.9,30.05,ESE,117,3.0,4.0,62,0.00,,,0.00,Wunderground v.1.15,2013-08-28 17:45:00,
2013-08-28 12:50:00,83.5,69.1,30.05,SE,142,2.0,3.0,62,0.00,,,0.00,Wunderground v.1.15,2013-08-28 17:50:00,
2013-08-28 12:55:00,84.3,69.4,30.05,South,177,3.0,5.0,61,0.00,,,0.00,Wunderground v.1.15,2013-08-28 17:55:00,
2013-08-28 13:00:00,85.0,69.6,30.05,South,177,3.0,7.0,60,0.00,,,0.00,Wunderground v.1.15,2013-08-28 18:00:00,
2013-08-28 13:05:00,85.1,69.2,30.05,SSE,160,3.0,7.0,59,0.00,,,0.00,Wunderground v.1.15,2013-08-28 18:05:00,
2013-08-28 13:10:00,85.3,69.3,30.04,SSW,201,5.0,6.0,59,0.00,,,0.00,Wunderground v.1.15,2013-08-28 18:10:00,
2013-08-28 13:15:00,85.2,69.7,30.04,South,177,2.0,6.0,60,0.00,,,0.00,Wunderground v.1.15,2013-08-28 18:15:00,
2013-08-28 13:20:00,84.8,68.9,30.04,SSW,194,3.0,4.0,59,0.00,,,0.00,Wunderground v.1.15,2013-08-28 18:20:00,
2013-08-28 13:25:00,85.4,69.9,30.04,SSW,205,4.0,5.0,60,0.00,,,0.00,Wunderground v.1.15,2013-08-28 18:25:00,
2013-08-28 13:30:00,85.6,69.1,30.04,SSW,206,4.0,6.0,58,0.00,,,0.00,Wunderground v.1.15,2013-08-28 18:30:00,
2013-08-28 13:35:00,85.8,69.8,30.04,SSW,212,3.0,6.0,59,0.00,,,0.00,Wunderground v.1.15,2013-08-28 18:35:00,
2013-08-28 13:40:00,86.0,69.0,30.03,SSW,195,2.0,3.0,57,0.00,,,0.00,Wunderground v.1.15,2013-08-28 18:40:00,
2013-08-28 13:45:00,86.0,69.5,30.03,SSW,203,3.0,5.0,58,0.00,,,0.00,Wunderground v.1.15,2013-08-28 18:45:00,
2013-08-28 13:50:00,85.9,68.9,30.03,SSW,198,4.0,4.0,57,0.00,,,0.00,Wunderground v.1.15,2013-08-28 18:50:00,
2013-08-28 13:56:00,85.9,69.4,30.03,South,188,4.0,7.0,58,0.00,,,0.00,Wunderground v.1.15,2013-08-28 18:56:00,
2013-08-28 14:01:00,85.8,69.3,30.03,South,180,4.0,5.0,58,0.00,,,0.00,Wunderground v.1.15,2013-08-28 19:01:00,
2013-08-28 14:06:00,85.6,69.6,30.03,SSW,200,2.0,7.0,59,0.00,,,0.00,Wunderground v.1.15,2013-08-28 19:06:00,
2013-08-28 14:11:00,85.6,69.6,30.03,SSW,201,6.0,6.0,59,0.00,,,0.00,Wunderground v.1.15,2013-08-28 19:11:00,
2013-08-28 14:16:00,85.8,68.8,30.03,South,174,4.0,6.0,57,0.00,,,0.00,Wunderground v.1.15,2013-08-28 19:16:00,
2013-08-28 14:21:00,85.8,68.8,30.03,South,173,4.0,6.0,57,0.00,,,0.00,Wunderground v.1.15,2013-08-28 19:21:00,
2013-08-28 14:26:00,85.6,69.1,30.02,SSW,210,6.0,6.0,58,0.00,,,0.00,Wunderground v.1.15,2013-08-28 19:26:00,
2013-08-28 14:31:00,85.6,69.6,30.02,SSW,201,4.0,7.0,59,0.00,,,0.00,Wunderground v.1.15,2013-08-28 19:31:00,
2013-08-28 14:36:00,85.8,69.3,30.02,SSW,208,3.0,7.0,58,0.00,,,0.00,Wunderground v.1.15,2013-08-28 19:36:00,
2013-08-28 14:41:00,85.7,69.2,30.02,SSW,198,3.0,5.0,58,0.00,,,0.00,Wunderground v.1.15,2013-08-28 19:41:00,
2013-08-28 14:46:00,85.8,68.8,30.02,SSW,195,3.0,8.0,57,0.00,,,0.00,Wunderground v.1.15,2013-08-28 19:46:00,
2013-08-28 14:51:00,85.8,68.8,30.02,SSW,198,5.0,6.0,57,0.00,,,0.00,Wunderground v.1.15,2013-08-28 19:51:00,
2013-08-28 14:56:00,85.8,69.3,30.01,SSW,198,4.0,6.0,58,0.00,,,0.00,Wunderground v.1.15,2013-08-28 19:56:00,
2013-08-28 15:01:00,85.7,68.2,30.01,South,181,5.0,6.0,56,0.00,,,0.00,Wunderground v.1.15,2013-08-28 20:01:00,
2013-08-28 15:06:00,85.7,68.7,30.01,SSE,150,4.0,6.0,57,0.00,,,0.00,Wunderground v.1.15,2013-08-28 20:06:00,
2013-08-28 15:11:00,85.7,68.7,30.01,SSW,193,5.0,6.0,57,0.00,,,0.00,Wunderground v.1.15,2013-08-28 20:11:00,
2013-08-28 15:16:00,85.7,68.7,30.01,South,184,1.0,6.0,57,0.00,,,0.00,Wunderground v.1.15,2013-08-28 20:16:00,
2013-08-28 15:21:00,85.9,68.9,30.01,SSW,197,4.0,5.0,57,0.00,,,0.00,Wunderground v.1.15,2013-08-28 20:21:00,
2013-08-28 15:26:00,86.0,69.5,30.01,SSE,148,4.0,7.0,58,0.00,,,0.00,Wunderground v.1.15,2013-08-28 20:26:00,
2013-08-28 15:31:00,86.0,69.5,30.01,SSE,158,4.0,5.0,58,0.00,,,0.00,Wunderground v.1.15,2013-08-28 20:31:00,
2013-08-28 15:36:00,86.3,69.3,30.00,SSW,196,4.0,6.0,57,0.00,,,0.00,Wunderground v.1.15,2013-08-28 20:36:00,
2013-08-28 15:42:00,86.4,69.4,30.00,SSE,156,2.0,6.0,57,0.00,,,0.00,Wunderground v.1.15,2013-08-28 20:42:00,
2013-08-28 15:47:00,86.3,69.3,30.00,SE,141,4.0,6.0,57,0.00,,,0.00,Wunderground v.1.15,2013-08-28 20:47:00,
2013-08-28 15:52:00,86.2,69.2,30.00,South,170,4.0,6.0,57,0.00,,,0.00,Wunderground v.1.15,2013-08-28 20:52:00,
2013-08-28 15:57:00,86.0,69.0,30.00,South,176,3.0,6.0,57,0.00,,,0.00,Wunderground v.1.15,2013-08-28 20:57:00,
2013-08-28 16:02:00,86.0,69.5,30.00,SSW,204,2.0,4.0,58,0.00,,,0.00,Wunderground v.1.15,2013-08-28 21:02:00,
2013-08-28 16:07:00,86.5,68.9,30.00,SSW,201,3.0,4.0,56,0.00,,,0.00,Wunderground v.1.15,2013-08-28 21:07:00,
2013-08-28 16:12:00,86.3,68.8,30.00,SSE,158,3.0,6.0,56,0.00,,,0.00,Wunderground v.1.15,2013-08-28 21:12:00,
2013-08-28 16:17:00,86.1,70.1,30.00,South,183,2.0,6.0,59,0.00,,,0.00,Wunderground v.1.15,2013-08-28 21:17:00,
2013-08-28 16:22:00,86.2,69.7,29.99,South,191,3.0,5.0,58,0.00,,,0.00,Wunderground v.1.15,2013-08-28 21:22:00,
2013-08-28 16:27:00,86.5,70.0,29.99,SSE,156,3.0,5.0,58,0.00,,,0.00,Wunderground v.1.15,2013-08-28 21:27:00,
2013-08-28 16:32:00,86.2,69.7,29.99,SSW,193,3.0,6.0,58,0.00,,,0.00,Wunderground v.1.15,2013-08-28 21:32:00,
2013-08-28 16:37:00,86.2,69.2,29.99,SSE,158,4.0,6.0,57,0.00,,,0.00,Wunderground v.1.15,2013-08-28 21:37:00,
2013-08-28 16:42:00,86.0,69.5,30.00,South,189,6.0,7.0,58,0.00,,,0.00,Wunderground v.1.15,2013-08-28 21:42:00,
2013-08-28 16:47:00,86.0,69.5,30.00,SSW,200,7.0,7.0,58,0.00,,,0.00,Wunderground v.1.15,2013-08-28 21:47:00,
2013-08-28 16:52:00,85.8,70.3,29.99,SSW,204,2.0,6.0,60,0.00,,,0.00,Wunderground v.1.15,2013-08-28 21:52:00,
2013-08-28 16:57:00,85.7,69.7,29.99,SSW,207,5.0,6.0,59,0.00,,,0.00,Wunderground v.1.15,2013-08-28 21:57:00,
2013-08-28 17:02:00,85.7,69.2,29.99,South,174,4.0,6.0,58,0.00,,,0.00,Wunderground v.1.15,2013-08-28 22:02:00,
2013-08-28 17:07:00,85.9,69.4,29.99,South,184,5.0,6.0,58,0.00,,,0.00,Wunderground v.1.15,2013-08-28 22:07:00,
2013-08-28 17:12:00,85.9,69.9,29.99,SSW,204,4.0,6.0,59,0.00,,,0.00,Wunderground v.1.15,2013-08-28 22:12:00,
2013-08-28 17:17:00,86.1,69.6,29.99,South,184,3.0,6.0,58,0.00,,,0.00,Wunderground v.1.15,2013-08-28 22:17:00,
2013-08-28 17:22:00,86.1,69.6,29.99,South,174,4.0,5.0,58,0.00,,,0.00,Wunderground v.1.15,2013-08-28 22:22:00,
2013-08-28 17:27:00,85.9,69.9,29.99,SSW,204,2.0,6.0,59,0.00,,,0.00,Wunderground v.1.15,2013-08-28 22:27:00,
2013-08-28 17:32:00,86.0,70.5,29.99,SSW,204,3.0,5.0,60,0.00,,,0.00,Wunderground v.1.15,2013-08-28 22:32:00,
2013-08-28 17:37:00,86.1,70.1,29.99,SSW,210,3.0,5.0,59,0.00,,,0.00,Wunderground v.1.15,2013-08-28 22:37:00,
2013-08-28 17:42:00,86.3,69.8,29.99,SSW,205,1.0,2.0,58,0.00,,,0.00,Wunderground v.1.15,2013-08-28 22:42:00,
2013-08-28 17:47:00,86.2,69.2,29.99,SSE,160,4.0,4.0,57,0.00,,,0.00,Wunderground v.1.15,2013-08-28 22:47:00,
2013-08-28 17:52:00,86.1,70.1,29.99,SSE,158,5.0,5.0,59,0.00,,,0.00,Wunderground v.1.15,2013-08-28 22:52:00,
2013-08-28 17:57:00,85.8,70.3,29.99,SSE,164,0.0,5.0,60,0.00,,,0.00,Wunderground v.1.15,2013-08-28 22:57:00,
2013-08-28 18:02:00,85.7,69.7,29.99,SSE,160,3.0,5.0,59,0.00,,,0.00,Wunderground v.1.15,2013-08-28 23:02:00,
2013-08-28 18:07:00,85.5,70.5,29.99,WSW,246,3.0,5.0,61,0.00,,,0.00,Wunderground v.1.15,2013-08-28 23:07:00,
2013-08-28 18:12:00,85.5,70.5,29.99,SW,233,1.0,3.0,61,0.00,,,0.00,Wunderground v.1.15,2013-08-28 23:12:00,
2013-08-28 18:17:00,85.6,70.1,29.99,SSW,198,4.0,4.0,60,0.00,,,0.00,Wunderground v.1.15,2013-08-28 23:17:00,
2013-08-28 18:22:00,85.5,70.0,29.99,SSW,205,1.0,3.0,60,0.00,,,0.00,Wunderground v.1.15,2013-08-28 23:22:00,
2013-08-28 18:28:00,85.2,69.7,29.99,South,191,1.0,4.0,60,0.00,,,0.00,Wunderground v.1.15,2013-08-28 23:28:00,
2013-08-28 18:33:00,85.1,70.1,29.99,SSW,211,2.0,3.0,61,0.00,,,0.00,Wunderground v.1.15,2013-08-28 23:33:00,
2013-08-28 18:38:00,85.0,70.0,29.99,South,191,2.0,3.0,61,0.00,,,0.00,Wunderground v.1.15,2013-08-28 23:38:00,
2013-08-28 18:43:00,84.8,70.3,29.99,SW,233,0.0,3.0,62,0.00,,,0.00,Wunderground v.1.15,2013-08-28 23:43:00,
2013-08-28 18:48:00,84.7,70.2,29.99,SW,225,0.0,3.0,62,0.00,,,0.00,Wunderground v.1.15,2013-08-28 23:48:00,
2013-08-28 18:53:00,84.7,71.2,29.99,SW,226,1.0,1.0,64,0.00,,,0.00,Wunderground v.1.15,2013-08-28 23:53:00,
2013-08-28 18:58:00,84.2,70.7,29.99,SW,225,2.0,2.0,64,0.00,,,0.00,Wunderground v.1.15,2013-08-28 23:58:00,
2013-08-28 19:03:00,83.5,70.0,29.99,SSW,210,1.0,3.0,64,0.00,,,0.00,Wunderground v.1.15,2013-08-29 00:03:00,
2013-08-28 19:08:00,82.9,69.9,29.99,SSW,212,0.0,3.0,65,0.00,,,0.00,Wunderground v.1.15,2013-08-29 00:08:00,
2013-08-28 19:13:00,82.5,70.0,29.99,WSW,238,0.0,2.0,66,0.00,,,0.00,Wunderground v.1.15,2013-08-29 00:13:00,
2013-08-28 19:18:00,82.1,69.6,29.99,SW,231,0.0,2.0,66,0.00,,,0.00,Wunderground v.1.15,2013-08-29 00:18:00,
2013-08-28 19:23:00,81.9,69.9,29.99,SW,226,0.0,1.0,67,0.00,,,0.00,Wunderground v.1.15,2013-08-29 00:23:00,
2013-08-28 19:28:00,81.7,69.7,29.99,SW,214,1.0,2.0,67,0.00,,,0.00,Wunderground v.1.15,2013-08-29 00:28:00,
2013-08-28 19:33:00,81.5,69.5,29.99,SSW,212,1.0,2.0,67,0.00,,,0.00,Wunderground v.1.15,2013-08-29 00:33:00,
2013-08-28 19:38:00,81.2,70.1,29.99,SSW,212,0.0,2.0,69,0.00,,,0.00,Wunderground v.1.15,2013-08-29 00:38:00,
2013-08-28 19:43:00,80.7,70.0,29.99,SSW,212,0.0,1.0,70,0.00,,,0.00,Wunderground v.1.15,2013-08-29 00:43:00,
2013-08-28 19:48:00,80.4,69.7,29.99,SSW,212,0.0,1.0,70,0.00,,,0.00,Wunderground v.1.15,2013-08-29 00:48:00,
2013-08-28 19:53:00,80.0,70.2,29.99,SSW,213,0.0,0.0,72,0.00,,,0.00,Wunderground v.1.15,2013-08-29 00:53:00,
2013-08-28 19:58:00,79.6,70.6,29.99,SSW,212,0.0,1.0,74,0.00,,,0.00,Wunderground v.1.15,2013-08-29 00:58:00,
2013-08-28 20:03:00,79.3,70.3,29.99,SSW,212,0.0,0.0,74,0.00,,,0.00,Wunderground v.1.15,2013-08-29 01:03:00,
2013-08-28 20:08:00,79.1,70.9,29.99,SSW,212,0.0,0.0,76,0.00,,,0.00,Wunderground v.1.15,2013-08-29 01:08:00,
2013-08-28 20:13:00,78.6,70.8,29.99,SSW,212,0.0,0.0,77,0.00,,,0.00,Wunderground v.1.15,2013-08-29 01:13:00,
2013-08-28 20:18:00,78.4,70.6,29.99,SSW,212,0.0,0.0,77,0.00,,,0.00,Wunderground v.1.15,2013-08-29 01:18:00,
2013-08-28 20:23:00,78.3,70.9,29.99,SSW,212,0.0,0.0,78,0.00,,,0.00,Wunderground v.1.15,2013-08-29 01:23:00,
2013-08-28 20:28:00,78.1,70.3,30.00,SSW,212,0.0,0.0,77,0.00,,,0.00,Wunderground v.1.15,2013-08-29 01:28:00,
2013-08-28 20:33:00,78.1,69.9,30.00,SSW,212,0.0,0.0,76,0.00,,,0.00,Wunderground v.1.15,2013-08-29 01:33:00,
2013-08-28 20:38:00,78.2,70.0,30.00,SSW,213,0.0,0.0,76,0.00,,,0.00,Wunderground v.1.15,2013-08-29 01:38:00,
2013-08-28 20:43:00,78.1,69.9,30.00,SSW,213,0.0,0.0,76,0.00,,,0.00,Wunderground v.1.15,2013-08-29 01:43:00,
2013-08-28 20:48:00,77.9,70.1,30.00,SSW,212,0.0,0.0,77,0.00,,,0.00,Wunderground v.1.15,2013-08-29 01:48:00,
2013-08-28 20:53:00,77.7,69.9,30.00,SSW,212,0.0,0.0,77,0.00,,,0.00,Wunderground v.1.15,2013-08-29 01:53:00,
2013-08-28 20:58:00,77.5,69.7,30.00,SSW,212,0.0,0.0,77,0.00,,,0.00,Wunderground v.1.15,2013-08-29 01:58:00,
2013-08-28 21:03:00,77.4,70.0,30.00,SSW,212,0.0,0.0,78,0.00,,,0.00,Wunderground v.1.15,2013-08-29 02:03:00,
2013-08-28 21:08:00,77.5,69.3,30.01,SSW,212,0.0,0.0,76,0.00,,,0.00,Wunderground v.1.15,2013-08-29 02:08:00,
2013-08-28 21:13:00,77.7,69.5,30.01,SSW,212,0.0,0.0,76,0.00,,,0.00,Wunderground v.1.15,2013-08-29 02:13:00,
2013-08-28 21:18:00,77.6,69.4,30.01,SSW,212,0.0,0.0,76,0.00,,,0.00,Wunderground v.1.15,2013-08-29 02:18:00,
2013-08-28 21:23:00,77.5,70.1,30.01,SSW,212,0.0,0.0,78,0.00,,,0.00,Wunderground v.1.15,2013-08-29 02:23:00,
2013-08-28 21:28:00,77.3,69.9,30.01,SSW,212,0.0,0.0,78,0.00,,,0.00,Wunderground v.1.15,2013-08-29 02:28:00,
2013-08-28 21:33:00,76.9,69.5,30.01,SSW,212,0.0,0.0,78,0.00,,,0.00,Wunderground v.1.15,2013-08-29 02:33:00,
2013-08-28 21:38:00,76.9,69.5,30.01,SSW,213,0.0,0.0,78,0.00,,,0.00,Wunderground v.1.15,2013-08-29 02:38:00,
2013-08-28 21:43:00,76.9,69.5,30.01,SSW,212,0.0,0.0,78,0.00,,,0.00,Wunderground v.1.15,2013-08-29 02:43:00,
2013-08-28 21:48:00,76.8,69.4,30.01,SSW,213,0.0,0.0,78,0.00,,,0.00,Wunderground v.1.15,2013-08-29 02:48:00,
2013-08-28 21:53:00,76.7,69.3,30.01,SSW,213,0.0,0.0,78,0.00,,,0.00,Wunderground v.1.15,2013-08-29 02:53:00,
2013-08-28 21:58:00,76.9,69.5,30.01,SSW,212,0.0,0.0,78,0.00,,,0.00,Wunderground v.1.15,2013-08-29 02:58:00,
2013-08-28 22:03:00,76.9,70.6,30.02,SSW,212,0.0,0.0,81,0.00,,,0.00,Wunderground v.1.15,2013-08-29 03:03:00,
2013-08-28 22:08:00,76.6,70.3,30.02,SSW,212,0.0,0.0,81,0.00,,,0.00,Wunderground v.1.15,2013-08-29 03:08:00,
2013-08-28 22:13:00,76.6,70.0,30.02,SSW,212,0.0,0.0,80,0.00,,,0.00,Wunderground v.1.15,2013-08-29 03:13:00,
2013-08-28 22:18:00,76.4,69.4,30.02,SSW,213,0.0,0.0,79,0.00,,,0.00,Wunderground v.1.15,2013-08-29 03:18:00,
2013-08-28 22:23:00,76.3,69.7,30.02,SSW,212,0.0,0.0,80,0.00,,,0.00,Wunderground v.1.15,2013-08-29 03:23:00,
2013-08-28 22:28:00,76.3,69.7,30.02,SSW,212,0.0,0.0,80,0.00,,,0.00,Wunderground v.1.15,2013-08-29 03:28:00,
2013-08-28 22:33:00,76.4,69.4,30.02,SSW,212,0.0,0.0,79,0.00,,,0.00,Wunderground v.1.15,2013-08-29 03:33:00,
2013-08-28 22:38:00,76.3,69.7,30.02,SSW,212,0.0,0.0,80,0.00,,,0.00,Wunderground v.1.15,2013-08-29 03:38:00,
2013-08-28 22:43:00,76.2,69.9,30.02,SSW,212,0.0,0.0,81,0.00,,,0.00,Wunderground v.1.15,2013-08-29 03:43:00,
2013-08-28 22:48:00,76.0,70.1,30.02,SSW,212,0.0,0.0,82,0.00,,,0.00,Wunderground v.1.15,2013-08-29 03:48:00,
2013-08-28 22:53:00,75.9,70.0,30.02,SSW,212,0.0,0.0,82,0.00,,,0.00,Wunderground v.1.15,2013-08-29 03:53:00,
2013-08-28 22:58:00,75.8,69.9,30.02,SSW,212,0.0,0.0,82,0.00,,,0.00,Wunderground v.1.15,2013-08-29 03:58:00,
2013-08-28 23:01:00,75.8,70.3,30.02,SSW,212,0.0,0.0,83,0.00,,,0.00,Wunderground v.1.15,2013-08-29 04:01:00,
2013-08-28 23:02:00,75.7,70.2,30.02,SSW,212,0.0,0.0,83,0.00,,,0.00,Wunderground v.1.15,2013-08-29 04:02:00,
2013-08-28 23:07:00,75.5,70.3,30.02,SSW,212,0.0,0.0,84,0.00,,,0.00,Wunderground v.1.15,2013-08-29 04:07:00,
2013-08-28 23:12:00,75.4,69.9,30.02,SSW,212,0.0,0.0,83,0.00,,,0.00,Wunderground v.1.15,2013-08-29 04:12:00,
2013-08-28 23:17:00,75.6,70.1,30.02,SSW,212,0.0,0.0,83,0.00,,,0.00,Wunderground v.1.15,2013-08-29 04:17:00,
2013-08-28 23:22:00,75.8,71.0,30.02,SSW,212,0.0,0.0,85,0.00,,,0.00,Wunderground v.1.15,2013-08-29 04:22:00,
2013-08-28 23:27:00,75.7,70.5,30.02,SSW,212,0.0,0.0,84,0.00,,,0.00,Wunderground v.1.15,2013-08-29 04:27:00,
2013-08-28 23:32:00,75.4,70.2,30.02,SSW,212,0.0,0.0,84,0.00,,,0.00,Wunderground v.1.15,2013-08-29 04:32:00,
2013-08-28 23:37:00,75.3,70.1,30.02,SSW,212,0.0,0.0,84,0.00,,,0.00,Wunderground v.1.15,2013-08-29 04:37:00,
2013-08-28 23:42:00,75.5,69.6,30.02,SSW,212,0.0,0.0,82,0.00,,,0.00,Wunderground v.1.15,2013-08-29 04:42:00,
2013-08-28 23:47:00,75.4,69.9,30.02,SW,229,0.0,0.0,83,0.00,,,0.00,Wunderground v.1.15,2013-08-29 04:47:00,
2013-08-28 23:52:00,75.1,69.9,30.02,SW,229,0.0,0.0,84,0.00,,,0.00,Wunderground v.1.15,2013-08-29 04:52:00,
2013-08-28 23:57:00,74.6,69.1,30.02,SW,229,0.0,0.0,83,0.00,,,0.00,Wunderground v.1.15,2013-08-29 04:57:00,